TimeCDT,TemperatureF,Dew PointF,Humidity,Sea Level PressureIn,VisibilityMPH,Wind Direction,Wind SpeedMPH,Gust SpeedMPH,PrecipitationIn,Events,Conditions,WindDirDegrees,DateUTC
12:52 AM,48.0,37.9,68,29.86,-9999.0,West,15.0,-,N/A,,Unknown,280,2013-10-12 05:52:00
1:52 AM,46.0,37.9,73,29.88,-9999.0,West,16.1,-,N/A,,Unknown,270,2013-10-12 06:52:00
2:52 AM,46.9,36.0,66,29.91,-9999.0,West,18.4,29.9,N/A,,Unknown,270,2013-10-12 07:52:00
3:52 AM,46.0,35.1,66,29.94,-9999.0,West,18.4,-,N/A,,Unknown,270,2013-10-12 08:52:00
4:52 AM,46.0,34.0,63,29.96,-9999.0,West,16.1,-,N/A,,Unknown,280,2013-10-12 09:52:00
5:52 AM,45.0,34.0,65,29.99,-9999.0,West,13.8,-,N/A,,Unknown,280,2013-10-12 10:52:00
6:52 AM,45.0,34.0,65,30.01,-9999.0,West,11.5,-,N/A,,Unknown,270,2013-10-12 11:52:00
7:52 AM,44.1,34.0,68,30.04,-9999.0,West,13.8,-,N/A,,Unknown,270,2013-10-12 12:52:00
8:52 AM,46.9,34.0,61,30.06,-9999.0,West,18.4,27.6,N/A,,Unknown,280,2013-10-12 13:52:00
9:52 AM,50.0,34.0,54,30.09,-9999.0,WNW,21.9,29.9,N/A,,Unknown,290,2013-10-12 14:52:00
10:52 AM,54.0,32.0,43,30.11,-9999.0,WNW,23.0,28.8,N/A,,Unknown,300,2013-10-12 15:52:00
11:52 AM,55.9,30.9,39,30.13,-9999.0,NW,21.9,31.1,N/A,,Unknown,310,2013-10-12 16:52:00
12:52 PM,57.9,30.0,35,30.14,-9999.0,NW,23.0,29.9,N/A,,Unknown,310,2013-10-12 17:52:00
1:52 PM,60.1,30.0,32,30.14,-9999.0,NW,20.7,27.6,N/A,,Unknown,320,2013-10-12 18:52:00
2:52 PM,60.1,27.0,28,30.14,-9999.0,NW,20.7,33.4,N/A,,Unknown,310,2013-10-12 19:52:00
3:52 PM,60.1,28.0,30,30.15,-9999.0,NW,12.7,20.7,N/A,,Unknown,320,2013-10-12 20:52:00
4:52 PM,60.1,28.0,30,30.16,-9999.0,NW,11.5,20.7,N/A,,Unknown,320,2013-10-12 21:52:00
5:52 PM,57.9,27.0,31,30.17,-9999.0,NW,12.7,20.7,N/A,,Unknown,320,2013-10-12 22:52:00
6:52 PM,52.0,28.0,40,30.20,-9999.0,NW,6.9,-,N/A,,Unknown,320,2013-10-12 23:52:00
7:52 PM,45.0,30.0,56,30.24,-9999.0,WNW,5.8,-,N/A,,Unknown,300,2013-10-13 00:52:00
8:52 PM,48.0,28.9,48,30.25,-9999.0,NNW,4.6,-,N/A,,Unknown,330,2013-10-13 01:52:00
9:52 PM,48.0,28.0,46,30.26,-9999.0,Calm,Calm,-,N/A,,Unknown,0,2013-10-13 02:52:00
10:52 PM,42.1,30.9,65,30.27,-9999.0,NNE,3.5,-,N/A,,Unknown,30,2013-10-13 03:52:00
11:52 PM,37.0,28.9,73,30.29,-9999.0,Calm,Calm,-,N/A,,Unknown,0,2013-10-13 04:52:00